Time,TemperatureF,DewpointF,PressureIn,WindDirection,WindDirectionDegrees,WindSpeedMPH,WindSpeedGustMPH,Humidity,HourlyPrecipIn,Conditions,Clouds,dailyrainin,SoftwareType,DateUTC
2013-05-20 00:01:00,68.7,67.2,30.06,SSE,151,2.3,2.3,95,0.00,RA,,0.00,WeatherDisplay:10.37,2013-05-20 04:01:00,
2013-05-20 00:06:00,68.5,67.0,30.06,SSE,151,0.0,0.0,95,0.01,RA,,0.01,WeatherDisplay:10.37,2013-05-20 04:06:00,
2013-05-20 00:11:00,68.5,67.0,30.06,SSE,151,0.0,0.0,95,0.01,RA,,0.02,WeatherDisplay:10.37,2013-05-20 04:11:00,
2013-05-20 00:16:00,68.5,67.0,30.05,SSE,151,1.1,1.1,95,0.02,RA,,0.03,WeatherDisplay:10.37,2013-05-20 04:16:00,
2013-05-20 00:21:00,68.5,67.0,30.05,SSE,151,2.3,2.3,95,0.01,RA,,0.03,WeatherDisplay:10.37,2013-05-20 04:21:00,
2013-05-20 00:26:00,68.3,66.8,30.04,SSE,151,0.0,0.0,95,0.02,RA,,0.04,WeatherDisplay:10.37,2013-05-20 04:26:00,
2013-05-20 00:31:00,68.3,67.1,30.04,SSE,151,1.1,0.0,96,0.02,RA,,0.05,WeatherDisplay:10.37,2013-05-20 04:31:00,
2013-05-20 00:36:00,68.3,67.1,30.04,SSE,151,2.0,2.0,96,0.03,RA,,0.06,WeatherDisplay:10.37,2013-05-20 04:36:00,
2013-05-20 00:41:00,68.3,67.1,30.03,SSE,151,0.0,0.0,96,0.04,RA,,0.07,WeatherDisplay:10.37,2013-05-20 04:41:00,
2013-05-20 00:46:00,68.3,67.1,30.03,SSE,150,5.0,5.0,96,0.03,RA,,0.07,WeatherDisplay:10.37,2013-05-20 04:46:00,
2013-05-20 00:51:00,68.4,67.2,30.03,SSE,150,0.0,0.0,96,0.03,RA,,0.08,WeatherDisplay:10.37,2013-05-20 04:51:00,
2013-05-20 00:56:00,68.5,67.3,30.03,SSE,147,0.0,0.0,96,0.04,RA,,0.09,WeatherDisplay:10.37,2013-05-20 04:56:00,
2013-05-20 01:01:00,68.5,67.3,30.03,SE,143,6.0,6.0,96,0.10,RA,,0.10,WeatherDisplay:10.37,2013-05-20 05:01:00,
2013-05-20 01:06:00,68.6,67.4,30.02,SSE,150,5.8,5.8,96,0.10,RA,,0.11,WeatherDisplay:10.37,2013-05-20 05:06:00,
2013-05-20 01:11:00,68.6,67.4,30.01,South,175,10.4,10.4,96,0.09,RA,,0.11,WeatherDisplay:10.37,2013-05-20 05:11:00,
2013-05-20 01:16:00,68.6,67.4,30.02,South,184,3.5,3.5,96,0.10,RA,,0.13,WeatherDisplay:10.37,2013-05-20 05:16:00,
2013-05-20 01:21:00,68.6,67.4,30.02,SE,130,2.3,2.3,96,0.10,RA,,0.13,WeatherDisplay:10.37,2013-05-20 05:21:00,
2013-05-20 01:26:00,68.6,67.4,30.02,SSE,148,1.1,1.1,96,0.10,RA,,0.14,WeatherDisplay:10.37,2013-05-20 05:26:00,
2013-05-20 01:31:00,68.6,67.4,30.03,SSW,192,1.1,1.1,96,0.10,RA,,0.15,WeatherDisplay:10.37,2013-05-20 05:31:00,
2013-05-20 01:36:00,68.6,67.4,30.03,WNW,287,3.5,3.5,96,0.10,RA,,0.16,WeatherDisplay:10.37,2013-05-20 05:36:00,
2013-05-20 01:41:00,68.6,67.4,30.03,NW,308,0.0,0.0,96,0.09,RA,,0.16,WeatherDisplay:10.37,2013-05-20 05:41:00,
2013-05-20 01:46:00,68.6,67.4,30.03,NW,308,0.0,0.0,96,0.10,RA,,0.17,WeatherDisplay:10.37,2013-05-20 05:46:00,
2013-05-20 01:51:00,68.7,67.8,30.03,NW,311,0.0,0.0,97,0.09,RA,,0.17,WeatherDisplay:10.37,2013-05-20 05:51:00,
2013-05-20 01:56:00,68.7,67.8,30.03,NW,311,0.0,0.0,97,0.08,CLR,,0.17,WeatherDisplay:10.37,2013-05-20 05:56:00,
2013-05-20 02:01:00,68.8,67.9,30.02,NW,311,0.0,0.0,97,0.07,CLR,,0.17,WeatherDisplay:10.37,2013-05-20 06:01:00,
2013-05-20 02:06:00,68.8,67.6,30.02,NW,311,0.0,0.0,96,0.06,CLR,,0.17,WeatherDisplay:10.37,2013-05-20 06:06:00,
2013-05-20 02:11:00,68.7,67.5,30.02,NW,311,0.0,0.0,96,0.06,CLR,,0.17,WeatherDisplay:10.37,2013-05-20 06:11:00,
2013-05-20 02:16:00,68.6,67.4,30.02,NW,311,0.0,0.0,96,0.04,CLR,,0.17,WeatherDisplay:10.37,2013-05-20 06:16:00,
2013-05-20 02:21:00,68.6,67.4,30.02,NW,311,0.0,0.0,96,0.04,CLR,,0.17,WeatherDisplay:10.37,2013-05-20 06:21:00,
2013-05-20 02:26:00,68.5,67.6,30.02,NW,311,0.0,0.0,97,0.03,CLR,,0.17,WeatherDisplay:10.37,2013-05-20 06:26:00,
2013-05-20 02:31:00,68.5,67.6,30.01,NW,311,0.0,0.0,97,0.02,CLR,,0.17,WeatherDisplay:10.37,2013-05-20 06:31:00,
2013-05-20 02:36:00,68.5,67.6,30.01,NW,311,0.0,0.0,97,0.01,CLR,,0.17,WeatherDisplay:10.37,2013-05-20 06:36:00,
2013-05-20 02:41:00,68.6,67.7,30.02,NW,311,0.0,0.0,97,0.01,CLR,,0.17,WeatherDisplay:10.37,2013-05-20 06:41:00,
2013-05-20 02:46:00,68.5,67.6,30.01,NW,311,0.0,0.0,97,0.00,CLR,,0.17,WeatherDisplay:10.37,2013-05-20 06:46:00,
2013-05-20 02:51:00,68.6,67.7,30.01,NW,311,0.0,0.0,97,0.00,CLR,,0.17,WeatherDisplay:10.37,2013-05-20 06:51:00,
2013-05-20 02:56:00,68.6,67.7,30.01,NW,311,0.0,0.0,97,0.00,CLR,,0.17,WeatherDisplay:10.37,2013-05-20 06:56:00,
2013-05-20 03:01:00,68.6,67.7,30.01,NW,311,0.0,0.0,97,0.00,CLR,,0.17,WeatherDisplay:10.37,2013-05-20 07:01:00,
2013-05-20 03:06:00,68.7,67.8,30.01,NW,311,0.0,0.0,97,0.00,CLR,,0.17,WeatherDisplay:10.37,2013-05-20 07:06:00,
2013-05-20 03:11:00,68.8,67.9,30.00,NW,311,0.0,0.0,97,0.00,CLR,,0.17,WeatherDisplay:10.37,2013-05-20 07:11:00,
2013-05-20 03:16:00,68.8,67.9,30.01,NW,311,0.0,0.0,97,0.00,CLR,,0.17,WeatherDisplay:10.37,2013-05-20 07:16:00,
2013-05-20 03:21:00,68.8,67.9,30.01,NW,311,0.0,0.0,97,0.00,CLR,,0.17,WeatherDisplay:10.37,2013-05-20 07:21:00,
2013-05-20 03:26:00,68.8,67.9,30.01,NW,311,0.0,0.0,97,0.00,CLR,,0.17,WeatherDisplay:10.37,2013-05-20 07:26:00,
2013-05-20 03:31:00,68.8,67.9,30.01,NW,311,0.0,0.0,97,0.00,CLR,,0.17,WeatherDisplay:10.37,2013-05-20 07:31:00,
2013-05-20 03:36:00,68.8,67.9,30.01,NW,311,0.0,0.0,97,0.00,CLR,,0.17,WeatherDisplay:10.37,2013-05-20 07:36:00,
2013-05-20 03:41:00,68.9,68.0,30.00,NW,311,0.0,0.0,97,0.00,CLR,,0.17,WeatherDisplay:10.37,2013-05-20 07:41:00,
2013-05-20 03:46:00,69.0,68.1,30.00,NW,311,0.0,0.0,97,0.00,CLR,,0.17,WeatherDisplay:10.37,2013-05-20 07:46:00,
2013-05-20 03:51:00,69.0,68.1,30.00,NW,311,0.0,0.0,97,0.00,CLR,,0.17,WeatherDisplay:10.37,2013-05-20 07:51:00,
2013-05-20 03:56:00,68.9,68.0,30.00,NW,311,0.0,0.0,97,0.00,CLR,,0.17,WeatherDisplay:10.37,2013-05-20 07:56:00,
2013-05-20 04:01:00,68.9,68.0,30.01,NW,311,0.0,0.0,97,0.00,CLR,,0.17,WeatherDisplay:10.37,2013-05-20 08:01:00,
2013-05-20 04:06:00,68.9,68.0,30.01,NW,311,0.0,0.0,97,0.00,CLR,,0.17,WeatherDisplay:10.37,2013-05-20 08:06:00,
2013-05-20 04:11:00,68.9,68.0,30.01,NW,311,0.0,0.0,97,0.00,CLR,,0.17,WeatherDisplay:10.37,2013-05-20 08:11:00,
2013-05-20 04:16:00,68.8,67.9,30.01,NW,311,0.0,0.0,97,0.00,CLR,,0.17,WeatherDisplay:10.37,2013-05-20 08:16:00,
2013-05-20 04:21:00,68.8,67.9,30.01,NW,311,0.0,0.0,97,0.00,CLR,,0.17,WeatherDisplay:10.37,2013-05-20 08:21:00,
2013-05-20 04:26:00,68.8,67.9,30.01,NW,311,0.0,0.0,97,0.00,CLR,,0.17,WeatherDisplay:10.37,2013-05-20 08:26:00,
2013-05-20 04:31:00,68.8,67.9,30.01,NW,311,0.0,0.0,97,0.00,CLR,,0.17,WeatherDisplay:10.37,2013-05-20 08:31:00,
2013-05-20 04:36:00,68.8,67.9,30.01,NW,311,0.0,0.0,97,0.00,CLR,,0.17,WeatherDisplay:10.37,2013-05-20 08:36:00,
2013-05-20 04:41:00,68.8,67.9,30.01,NW,311,0.0,0.0,97,0.00,CLR,,0.17,WeatherDisplay:10.37,2013-05-20 08:41:00,
2013-05-20 04:46:00,68.7,67.8,30.01,NW,311,0.0,0.0,97,0.00,CLR,,0.17,WeatherDisplay:10.37,2013-05-20 08:46:00,
2013-05-20 04:51:00,68.7,67.8,30.01,NW,311,0.0,0.0,97,0.00,CLR,,0.17,WeatherDisplay:10.37,2013-05-20 08:51:00,
2013-05-20 04:56:00,68.8,67.9,30.01,NW,311,0.0,0.0,97,0.00,CLR,,0.17,WeatherDisplay:10.37,2013-05-20 08:56:00,
2013-05-20 05:01:00,68.7,67.8,30.01,NW,311,0.0,0.0,97,0.00,CLR,,0.17,WeatherDisplay:10.37,2013-05-20 09:01:00,
2013-05-20 05:06:00,68.7,67.8,30.01,NW,311,0.0,0.0,97,0.00,CLR,,0.17,WeatherDisplay:10.37,2013-05-20 09:06:00,
2013-05-20 05:11:00,68.6,67.7,30.01,NW,311,0.0,0.0,97,0.00,CLR,,0.17,WeatherDisplay:10.37,2013-05-20 09:11:00,
2013-05-20 05:16:00,68.6,67.7,30.01,NW,311,0.0,0.0,97,0.00,CLR,,0.17,WeatherDisplay:10.37,2013-05-20 09:16:00,
2013-05-20 05:21:00,68.6,67.7,30.02,NW,311,0.0,0.0,97,0.00,CLR,,0.17,WeatherDisplay:10.37,2013-05-20 09:21:00,
2013-05-20 05:26:00,68.6,67.7,30.02,NW,311,0.0,0.0,97,0.00,CLR,,0.17,WeatherDisplay:10.37,2013-05-20 09:26:00,
2013-05-20 05:31:00,68.6,67.7,30.02,NW,311,0.0,0.0,97,0.00,CLR,,0.17,WeatherDisplay:10.37,2013-05-20 09:31:00,
2013-05-20 05:36:00,68.6,67.7,30.02,NW,311,0.0,0.0,97,0.00,CLR,,0.17,WeatherDisplay:10.37,2013-05-20 09:36:00,
2013-05-20 05:41:00,68.6,67.7,30.02,NW,311,0.0,0.0,97,0.00,CLR,,0.17,WeatherDisplay:10.37,2013-05-20 09:41:00,
2013-05-20 05:46:00,68.6,67.7,30.02,NW,311,0.0,0.0,97,0.00,CLR,,0.17,WeatherDisplay:10.37,2013-05-20 09:46:00,
2013-05-20 05:51:00,68.7,67.8,30.02,NW,311,0.0,0.0,97,0.00,CLR,,0.17,WeatherDisplay:10.37,2013-05-20 09:51:00,
2013-05-20 05:56:00,68.7,67.8,30.02,NW,311,0.0,0.0,97,0.00,CLR,,0.17,WeatherDisplay:10.37,2013-05-20 09:56:00,
2013-05-20 06:01:00,68.7,67.8,30.02,NW,311,0.0,0.0,97,0.00,CLR,,0.17,WeatherDisplay:10.37,2013-05-20 10:01:00,
2013-05-20 06:06:00,68.7,67.8,30.02,NW,311,0.0,0.0,97,0.00,CLR,,0.17,WeatherDisplay:10.37,2013-05-20 10:06:00,
2013-05-20 06:11:00,68.7,67.8,30.02,NW,311,0.0,0.0,97,0.00,CLR,,0.17,WeatherDisplay:10.37,2013-05-20 10:11:00,
2013-05-20 06:16:00,68.7,67.8,30.02,NW,311,0.0,0.0,97,0.00,CLR,,0.17,WeatherDisplay:10.37,2013-05-20 10:16:00,
2013-05-20 06:21:00,68.8,67.9,30.02,NW,311,0.0,0.0,97,0.00,CLR,,0.17,WeatherDisplay:10.37,2013-05-20 10:21:00,
2013-05-20 06:26:00,68.7,67.8,30.02,NW,311,0.0,0.0,97,0.00,CLR,,0.17,WeatherDisplay:10.37,2013-05-20 10:26:00,
2013-05-20 06:31:00,68.8,67.9,30.02,NW,311,0.0,0.0,97,0.00,CLR,,0.17,WeatherDisplay:10.37,2013-05-20 10:31:00,
2013-05-20 06:36:00,68.8,67.9,30.03,NW,311,0.0,0.0,97,0.00,CLR,,0.17,WeatherDisplay:10.37,2013-05-20 10:36:00,
2013-05-20 06:41:00,68.8,67.9,30.03,NW,311,0.0,0.0,97,0.00,CLR,,0.17,WeatherDisplay:10.37,2013-05-20 10:41:00,
2013-05-20 06:46:00,68.8,67.9,30.03,NW,311,0.0,0.0,97,0.00,CLR,,0.17,WeatherDisplay:10.37,2013-05-20 10:46:00,
2013-05-20 06:51:00,68.9,68.0,30.03,NW,311,0.0,0.0,97,0.00,CLR,,0.17,WeatherDisplay:10.37,2013-05-20 10:51:00,
2013-05-20 06:56:00,69.1,68.5,30.04,NW,311,0.0,0.0,98,0.00,CLR,,0.17,WeatherDisplay:10.37,2013-05-20 10:56:00,
2013-05-20 07:01:00,69.2,68.6,30.04,NW,311,0.0,0.0,98,0.00,CLR,,0.17,WeatherDisplay:10.37,2013-05-20 11:01:00,
2013-05-20 07:06:00,69.4,68.8,30.04,NW,311,0.0,0.0,98,0.00,CLR,,0.17,WeatherDisplay:10.37,2013-05-20 11:06:00,
2013-05-20 07:11:00,69.5,68.9,30.04,NW,311,0.0,0.0,98,0.00,CLR,,0.17,WeatherDisplay:10.37,2013-05-20 11:11:00,
2013-05-20 07:16:00,69.7,69.1,30.04,NW,311,0.0,0.0,98,0.00,CLR,,0.17,WeatherDisplay:10.37,2013-05-20 11:16:00,
2013-05-20 07:21:00,69.8,69.2,30.04,NW,311,0.0,0.0,98,0.00,CLR,,0.17,WeatherDisplay:10.37,2013-05-20 11:21:00,
2013-05-20 07:26:00,69.9,69.3,30.04,NW,311,0.0,0.0,98,0.00,CLR,,0.17,WeatherDisplay:10.37,2013-05-20 11:26:00,
2013-05-20 07:31:00,70.0,69.4,30.04,NW,311,0.0,0.0,98,0.00,CLR,,0.17,WeatherDisplay:10.37,2013-05-20 11:31:00,
2013-05-20 07:36:00,70.2,69.6,30.05,NW,311,0.0,0.0,98,0.00,CLR,,0.17,WeatherDisplay:10.37,2013-05-20 11:36:00,
2013-05-20 07:41:00,70.5,69.9,30.05,NW,311,0.0,0.0,98,0.00,CLR,,0.17,WeatherDisplay:10.37,2013-05-20 11:41:00,
2013-05-20 07:46:00,70.8,70.2,30.05,NW,311,0.0,0.0,98,0.00,CLR,,0.17,WeatherDisplay:10.37,2013-05-20 11:46:00,
2013-05-20 07:51:00,70.9,70.3,30.05,NW,311,0.0,0.1,98,0.00,CLR,,0.17,WeatherDisplay:10.37,2013-05-20 11:51:00,
2013-05-20 07:56:00,71.1,70.5,30.05,NW,311,0.0,0.0,98,0.00,CLR,,0.17,WeatherDisplay:10.37,2013-05-20 11:56:00,
2013-05-20 08:01:00,71.3,70.7,30.05,NW,311,1.1,0.0,98,0.00,CLR,,0.17,WeatherDisplay:10.37,2013-05-20 12:01:00,
2013-05-20 08:06:00,71.5,70.9,30.05,NW,311,0.0,0.0,98,0.00,CLR,,0.17,WeatherDisplay:10.37,2013-05-20 12:06:00,
2013-05-20 08:11:00,71.7,71.1,30.06,NW,311,1.1,0.0,98,0.00,CLR,,0.17,WeatherDisplay:10.37,2013-05-20 12:11:00,
2013-05-20 08:16:00,71.9,71.6,30.06,NW,311,1.1,0.0,99,0.00,CLR,,0.17,WeatherDisplay:10.37,2013-05-20 12:16:00,
2013-05-20 08:21:00,72.1,71.5,30.06,WSW,240,0.0,0.1,98,0.00,CLR,,0.17,WeatherDisplay:10.37,2013-05-20 12:21:00,
2013-05-20 08:26:00,72.3,71.7,30.06,WSW,240,0.0,0.0,98,0.00,CLR,,0.17,WeatherDisplay:10.37,2013-05-20 12:26:00,
2013-05-20 08:31:00,72.5,72.2,30.05,SSE,165,4.6,4.6,99,0.00,CLR,,0.17,WeatherDisplay:10.37,2013-05-20 12:31:00,
2013-05-20 08:36:00,72.7,72.4,30.06,SSE,166,0.0,0.0,99,0.00,CLR,,0.17,WeatherDisplay:10.37,2013-05-20 12:36:00,
2013-05-20 08:41:00,72.8,72.2,30.06,SSE,166,0.0,0.1,98,0.00,CLR,,0.17,WeatherDisplay:10.37,2013-05-20 12:41:00,
2013-05-20 08:46:00,73.0,72.4,30.06,SSE,166,0.0,0.0,98,0.00,CLR,,0.17,WeatherDisplay:10.37,2013-05-20 12:46:00,
2013-05-20 08:51:00,73.1,72.5,30.06,SSE,166,0.0,0.0,98,0.00,CLR,,0.17,WeatherDisplay:10.37,2013-05-20 12:51:00,
2013-05-20 08:56:00,73.2,72.6,30.06,SSE,166,1.1,0.0,98,0.00,CLR,,0.17,WeatherDisplay:10.37,2013-05-20 12:56:00,
2013-05-20 09:01:00,73.3,72.7,30.06,SSE,155,0.0,0.0,98,0.00,CLR,,0.17,WeatherDisplay:10.37,2013-05-20 13:01:00,
2013-05-20 09:06:00,73.5,72.9,30.06,SSE,155,0.0,0.0,98,0.00,CLR,,0.17,WeatherDisplay:10.37,2013-05-20 13:06:00,
2013-05-20 09:11:00,73.6,73.0,30.07,SSE,155,0.0,0.0,98,0.00,CLR,,0.17,WeatherDisplay:10.37,2013-05-20 13:11:00,
2013-05-20 09:16:00,73.7,73.1,30.07,SSE,155,0.0,0.0,98,0.00,CLR,,0.17,WeatherDisplay:10.37,2013-05-20 13:16:00,
2013-05-20 09:21:00,73.9,73.3,30.07,SSE,155,1.1,1.1,98,0.00,CLR,,0.17,WeatherDisplay:10.37,2013-05-20 13:21:00,
2013-05-20 09:26:00,73.8,73.2,30.07,SSE,156,1.0,1.0,98,0.00,CLR,,0.17,WeatherDisplay:10.37,2013-05-20 13:26:00,
2013-05-20 09:31:00,73.8,73.2,30.07,SSE,155,1.1,0.0,98,0.00,CLR,,0.17,WeatherDisplay:10.37,2013-05-20 13:31:00,
2013-05-20 09:36:00,73.9,73.3,30.07,SE,145,1.1,1.1,98,0.00,CLR,,0.17,WeatherDisplay:10.37,2013-05-20 13:36:00,
2013-05-20 09:41:00,74.0,73.1,30.07,SE,145,1.1,1.1,97,0.00,CLR,,0.17,WeatherDisplay:10.37,2013-05-20 13:41:00,
2013-05-20 09:46:00,74.1,73.2,30.07,SSE,147,1.1,1.4,97,0.00,CLR,,0.17,WeatherDisplay:10.37,2013-05-20 13:46:00,
2013-05-20 09:51:00,74.3,73.4,30.07,South,173,0.0,0.1,97,0.00,CLR,,0.17,WeatherDisplay:10.37,2013-05-20 13:51:00,
2013-05-20 09:56:00,74.4,73.5,30.07,South,169,0.0,0.0,97,0.00,CLR,,0.17,WeatherDisplay:10.37,2013-05-20 13:56:00,
2013-05-20 10:01:00,74.4,73.5,30.08,SE,146,4.6,4.6,97,0.00,CLR,,0.17,WeatherDisplay:10.37,2013-05-20 14:01:00,
2013-05-20 10:06:00,74.5,73.3,30.08,SSE,148,4.6,4.6,96,0.00,CLR,,0.17,WeatherDisplay:10.37,2013-05-20 14:06:00,
2013-05-20 10:11:00,74.6,73.4,30.08,SE,145,1.1,1.1,96,0.00,CLR,,0.17,WeatherDisplay:10.37,2013-05-20 14:11:00,
2013-05-20 10:16:00,74.8,73.6,30.08,SE,145,1.1,0.0,96,0.00,CLR,,0.17,WeatherDisplay:10.37,2013-05-20 14:16:00,
2013-05-20 10:21:00,74.9,73.7,30.08,SE,144,4.6,4.6,96,0.00,CLR,,0.17,WeatherDisplay:10.37,2013-05-20 14:21:00,
2013-05-20 10:26:00,75.1,73.9,30.08,SE,144,0.0,0.0,96,0.00,CLR,,0.17,WeatherDisplay:10.37,2013-05-20 14:26:00,
2013-05-20 10:31:00,75.2,73.7,30.08,SSE,156,1.1,0.0,95,0.00,CLR,,0.17,WeatherDisplay:10.37,2013-05-20 14:31:00,
2013-05-20 10:36:00,75.4,73.9,30.08,SSE,156,2.3,2.3,95,0.00,CLR,,0.17,WeatherDisplay:10.37,2013-05-20 14:36:00,
2013-05-20 10:41:00,75.6,74.1,30.08,SSE,155,3.5,3.5,95,0.00,CLR,,0.17,WeatherDisplay:10.37,2013-05-20 14:41:00,
2013-05-20 10:46:00,75.6,73.8,30.08,SSE,155,1.1,1.1,94,0.00,CLR,,0.17,WeatherDisplay:10.37,2013-05-20 14:46:00,
2013-05-20 10:51:00,75.7,73.8,30.08,SSE,155,0.0,0.0,94,0.00,CLR,,0.17,WeatherDisplay:10.37,2013-05-20 14:51:00,
2013-05-20 10:56:00,75.8,73.9,30.08,SSE,155,0.0,0.0,94,0.00,CLR,,0.17,WeatherDisplay:10.37,2013-05-20 14:56:00,
2013-05-20 11:01:00,75.8,73.6,30.08,SSE,155,0.0,0.0,93,0.00,CLR,,0.17,WeatherDisplay:10.37,2013-05-20 15:01:00,
2013-05-20 11:06:00,75.8,73.6,30.08,SSE,160,0.0,0.0,93,0.00,CLR,,0.17,WeatherDisplay:10.37,2013-05-20 15:06:00,
2013-05-20 11:11:00,75.8,73.6,30.09,SSE,160,0.0,0.0,93,0.00,CLR,,0.17,WeatherDisplay:10.37,2013-05-20 15:11:00,
2013-05-20 11:16:00,75.9,73.7,30.08,SSE,160,1.1,1.1,93,0.00,CLR,,0.17,WeatherDisplay:10.37,2013-05-20 15:16:00,
2013-05-20 11:21:00,76.0,73.8,30.08,SSE,160,0.0,0.0,93,0.00,CLR,,0.17,WeatherDisplay:10.37,2013-05-20 15:21:00,
2013-05-20 11:26:00,76.0,73.5,30.08,SSE,160,0.0,0.0,92,0.00,CLR,,0.17,WeatherDisplay:10.37,2013-05-20 15:26:00,
2013-05-20 11:31:00,76.2,73.7,30.08,SE,136,1.1,1.1,92,0.00,CLR,,0.17,WeatherDisplay:10.37,2013-05-20 15:31:00,
2013-05-20 11:36:00,76.3,73.8,30.08,SSE,166,0.0,0.1,92,0.00,CLR,,0.17,WeatherDisplay:10.37,2013-05-20 15:36:00,
2013-05-20 11:41:00,76.5,73.7,30.08,SSE,161,0.0,0.0,91,0.00,CLR,,0.17,WeatherDisplay:10.37,2013-05-20 15:41:00,
2013-05-20 11:46:00,76.7,73.9,30.08,SSE,161,2.3,2.3,91,0.00,CLR,,0.17,WeatherDisplay:10.37,2013-05-20 15:46:00,
2013-05-20 11:51:00,77.1,73.9,30.08,SSE,159,1.1,0.0,90,0.00,CLR,,0.17,WeatherDisplay:10.37,2013-05-20 15:51:00,
2013-05-20 11:56:00,77.3,74.1,30.08,SSE,158,0.0,0.0,90,0.00,CLR,,0.17,WeatherDisplay:10.37,2013-05-20 15:56:00,
2013-05-20 12:01:00,77.6,73.8,30.08,South,182,2.3,0.0,88,0.00,CLR,,0.17,WeatherDisplay:10.37,2013-05-20 16:01:00,
2013-05-20 12:06:00,77.9,74.4,30.08,South,182,1.1,1.1,89,0.00,CLR,,0.17,WeatherDisplay:10.37,2013-05-20 16:06:00,
2013-05-20 12:11:00,78.2,74.7,30.08,South,180,1.1,0.0,89,0.00,CLR,,0.17,WeatherDisplay:10.37,2013-05-20 16:11:00,
2013-05-20 12:16:00,78.4,74.5,30.08,South,180,0.0,0.0,88,0.00,CLR,,0.17,WeatherDisplay:10.37,2013-05-20 16:16:00,
2013-05-20 12:21:00,78.6,74.1,30.08,South,180,0.0,0.0,86,0.00,CLR,,0.17,WeatherDisplay:10.37,2013-05-20 16:21:00,
2013-05-20 12:26:00,78.7,74.2,30.07,South,180,0.0,0.0,86,0.00,CLR,,0.17,WeatherDisplay:10.37,2013-05-20 16:26:00,
2013-05-20 12:31:00,78.9,74.4,30.07,South,180,0.0,0.0,86,0.00,CLR,,0.17,WeatherDisplay:10.37,2013-05-20 16:31:00,
2013-05-20 12:36:00,79.1,74.5,30.07,South,180,0.0,0.0,86,0.00,CLR,,0.17,WeatherDisplay:10.37,2013-05-20 16:36:00,
2013-05-20 12:41:00,79.4,75.2,30.07,South,180,0.0,0.0,87,0.00,CLR,,0.17,WeatherDisplay:10.37,2013-05-20 16:41:00,
2013-05-20 12:46:00,79.6,75.0,30.07,SSE,165,5.0,5.0,86,0.00,CLR,,0.17,WeatherDisplay:10.37,2013-05-20 16:46:00,
2013-05-20 12:51:00,79.8,74.5,30.07,SSE,166,0.0,0.0,84,0.00,CLR,,0.17,WeatherDisplay:10.37,2013-05-20 16:51:00,
2013-05-20 12:56:00,79.9,74.3,30.07,SSE,165,1.1,0.0,83,0.00,CLR,,0.17,WeatherDisplay:10.37,2013-05-20 16:56:00,
2013-05-20 13:01:00,80.0,74.7,30.06,SSE,163,0.0,0.0,84,0.00,CLR,,0.17,WeatherDisplay:10.37,2013-05-20 17:01:00,
2013-05-20 13:06:00,80.0,75.1,30.06,SSE,163,2.0,2.0,85,0.00,CLR,,0.17,WeatherDisplay:10.37,2013-05-20 17:06:00,
2013-05-20 13:11:00,79.8,73.8,30.06,South,190,1.1,0.0,82,0.00,CLR,,0.17,WeatherDisplay:10.37,2013-05-20 17:11:00,
2013-05-20 13:16:00,79.8,74.5,30.06,South,190,0.0,0.0,84,0.00,CLR,,0.17,WeatherDisplay:10.37,2013-05-20 17:16:00,
2013-05-20 13:21:00,79.8,73.8,30.06,SE,139,1.1,1.1,82,0.00,CLR,,0.17,WeatherDisplay:10.37,2013-05-20 17:21:00,
2013-05-20 13:26:00,79.8,74.2,30.06,SE,139,0.0,0.0,83,0.00,CLR,,0.17,WeatherDisplay:10.37,2013-05-20 17:26:00,
2013-05-20 13:31:00,79.9,74.6,30.06,SE,139,0.0,0.0,84,0.00,CLR,,0.17,WeatherDisplay:10.37,2013-05-20 17:31:00,
2013-05-20 13:36:00,80.0,74.0,30.06,SE,139,1.1,1.1,82,0.00,CLR,,0.17,WeatherDisplay:10.37,2013-05-20 17:36:00,
2013-05-20 13:41:00,80.0,73.6,30.06,SE,139,1.1,0.0,81,0.00,CLR,,0.17,WeatherDisplay:10.37,2013-05-20 17:41:00,
2013-05-20 13:46:00,80.1,74.8,30.06,SE,139,0.0,0.0,84,0.00,CLR,,0.17,WeatherDisplay:10.37,2013-05-20 17:46:00,
2013-05-20 13:51:00,80.2,74.6,30.06,SE,139,0.0,0.0,83,0.00,CLR,,0.17,WeatherDisplay:10.37,2013-05-20 17:51:00,
2013-05-20 13:56:00,80.1,73.7,30.06,SE,139,1.1,0.0,81,0.00,CLR,,0.17,WeatherDisplay:10.37,2013-05-20 17:56:00,
2013-05-20 14:01:00,80.1,73.4,30.05,SE,139,0.0,0.0,80,0.00,CLR,,0.17,WeatherDisplay:10.37,2013-05-20 18:01:00,
2013-05-20 14:06:00,80.1,73.7,30.05,SE,139,0.0,0.0,81,0.00,CLR,,0.17,WeatherDisplay:10.37,2013-05-20 18:06:00,
2013-05-20 14:11:00,80.1,74.1,30.05,SE,139,0.0,0.0,82,0.00,CLR,,0.17,WeatherDisplay:10.37,2013-05-20 18:11:00,
2013-05-20 14:16:00,80.2,74.6,30.05,SE,139,0.0,0.0,83,0.00,CLR,,0.17,WeatherDisplay:10.37,2013-05-20 18:16:00,
2013-05-20 14:21:00,80.1,73.7,30.05,SE,139,0.0,0.0,81,0.00,CLR,,0.17,WeatherDisplay:10.37,2013-05-20 18:21:00,
2013-05-20 14:26:00,80.1,73.4,30.05,SE,139,0.0,0.0,80,0.00,CLR,,0.17,WeatherDisplay:10.37,2013-05-20 18:26:00,
2013-05-20 14:31:00,80.1,73.7,30.05,SE,139,0.0,0.0,81,0.00,CLR,,0.17,WeatherDisplay:10.37,2013-05-20 18:31:00,
2013-05-20 14:36:00,80.2,74.2,30.05,SE,139,1.1,0.0,82,0.00,CLR,,0.17,WeatherDisplay:10.37,2013-05-20 18:36:00,
2013-05-20 14:41:00,80.2,74.9,30.05,SE,139,0.0,0.1,84,0.00,CLR,,0.17,WeatherDisplay:10.37,2013-05-20 18:41:00,
2013-05-20 14:46:00,80.2,75.3,30.05,SE,139,0.0,0.0,85,0.00,CLR,,0.17,WeatherDisplay:10.37,2013-05-20 18:46:00,
2013-05-20 14:51:00,80.2,74.6,30.04,SE,139,1.1,1.1,83,0.00,CLR,,0.17,WeatherDisplay:10.37,2013-05-20 18:51:00,
2013-05-20 14:56:00,80.1,74.5,30.04,SE,139,0.0,0.0,83,0.00,CLR,,0.17,WeatherDisplay:10.37,2013-05-20 18:56:00,
2013-05-20 15:01:00,80.0,74.4,30.04,SE,139,0.0,0.0,83,0.00,CLR,,0.17,WeatherDisplay:10.37,2013-05-20 19:01:00,
2013-05-20 15:06:00,80.0,75.1,30.04,SE,139,0.0,0.0,85,0.00,CLR,,0.17,WeatherDisplay:10.37,2013-05-20 19:06:00,
2013-05-20 15:11:00,80.0,74.7,30.04,SE,139,1.1,0.0,84,0.00,CLR,,0.17,WeatherDisplay:10.37,2013-05-20 19:11:00,
2013-05-20 15:16:00,80.0,74.7,30.03,SE,139,0.0,0.0,84,0.00,CLR,,0.17,WeatherDisplay:10.37,2013-05-20 19:16:00,
2013-05-20 15:21:00,80.0,74.7,30.03,SE,139,0.0,0.0,84,0.00,CLR,,0.17,WeatherDisplay:10.37,2013-05-20 19:21:00,
2013-05-20 15:26:00,80.0,74.7,30.03,SSE,152,1.0,1.0,84,0.00,CLR,,0.17,WeatherDisplay:10.37,2013-05-20 19:26:00,
2013-05-20 15:31:00,80.0,74.4,30.03,SSE,152,2.3,2.3,83,0.00,CLR,,0.17,WeatherDisplay:10.37,2013-05-20 19:31:00,
2013-05-20 15:36:00,80.1,74.8,30.03,SSE,152,1.1,1.1,84,0.00,CLR,,0.17,WeatherDisplay:10.37,2013-05-20 19:36:00,
2013-05-20 15:41:00,80.2,74.9,30.02,SSE,152,0.0,0.0,84,0.00,CLR,,0.17,WeatherDisplay:10.37,2013-05-20 19:41:00,
2013-05-20 15:46:00,80.4,74.8,30.02,SSE,152,0.0,0.1,83,0.00,CLR,,0.17,WeatherDisplay:10.37,2013-05-20 19:46:00,
2013-05-20 15:51:00,80.5,74.5,30.02,SSE,152,0.0,0.0,82,0.00,CLR,,0.17,WeatherDisplay:10.37,2013-05-20 19:51:00,
2013-05-20 15:56:00,80.6,73.5,30.01,SSE,152,0.0,0.0,79,0.00,CLR,,0.17,WeatherDisplay:10.37,2013-05-20 19:56:00,
2013-05-20 16:01:00,80.7,74.3,30.01,SSE,152,0.0,0.0,81,0.00,CLR,,0.17,WeatherDisplay:10.37,2013-05-20 20:01:00,
2013-05-20 16:06:00,80.8,73.7,30.01,SSE,152,0.0,0.1,79,0.00,CLR,,0.17,WeatherDisplay:10.37,2013-05-20 20:06:00,
2013-05-20 16:11:00,81.0,73.5,30.01,SSE,152,2.0,2.0,78,0.00,CLR,,0.17,WeatherDisplay:10.37,2013-05-20 20:11:00,
2013-05-20 16:16:00,81.3,73.4,30.01,SE,144,3.5,3.5,77,0.00,CLR,,0.17,WeatherDisplay:10.37,2013-05-20 20:16:00,
2013-05-20 16:21:00,81.6,73.3,30.00,SE,144,0.0,0.0,76,0.00,CLR,,0.17,WeatherDisplay:10.37,2013-05-20 20:21:00,
2013-05-20 16:26:00,81.9,74.7,30.00,SE,144,0.0,0.1,79,0.00,CLR,,0.17,WeatherDisplay:10.37,2013-05-20 20:26:00,
2013-05-20 16:31:00,82.1,74.6,30.00,SSE,149,1.1,1.1,78,0.00,CLR,,0.17,WeatherDisplay:10.37,2013-05-20 20:31:00,
2013-05-20 16:36:00,82.3,74.7,30.00,SE,137,0.0,0.0,78,0.00,CLR,,0.17,WeatherDisplay:10.37,2013-05-20 20:36:00,
2013-05-20 16:41:00,82.6,74.7,30.00,SSE,162,1.1,0.0,77,0.00,CLR,,0.17,WeatherDisplay:10.37,2013-05-20 20:41:00,
2013-05-20 16:46:00,82.8,75.2,30.00,South,180,1.1,0.0,78,0.00,CLR,,0.17,WeatherDisplay:10.37,2013-05-20 20:46:00,
2013-05-20 16:51:00,82.7,74.4,30.00,South,177,0.0,0.0,76,0.00,CLR,,0.17,WeatherDisplay:10.37,2013-05-20 20:51:00,
2013-05-20 16:56:00,82.5,74.2,30.00,South,177,0.0,0.0,76,0.00,CLR,,0.17,WeatherDisplay:10.37,2013-05-20 20:56:00,
2013-05-20 17:01:00,82.4,74.1,30.00,South,175,3.5,3.5,76,0.00,CLR,,0.17,WeatherDisplay:10.37,2013-05-20 21:01:00,
2013-05-20 17:06:00,82.5,74.9,30.00,SSE,166,0.0,0.0,78,0.00,CLR,,0.17,WeatherDisplay:10.37,2013-05-20 21:06:00,
2013-05-20 17:11:00,82.7,74.0,30.00,SSE,166,0.0,0.0,75,0.00,CLR,,0.17,WeatherDisplay:10.37,2013-05-20 21:11:00,
2013-05-20 17:16:00,82.8,74.1,30.00,SSE,166,1.1,0.0,75,0.00,CLR,,0.17,WeatherDisplay:10.37,2013-05-20 21:16:00,
2013-05-20 17:21:00,82.9,73.8,30.00,SSE,166,0.0,0.0,74,0.00,CLR,,0.17,WeatherDisplay:10.37,2013-05-20 21:21:00,
2013-05-20 17:26:00,82.7,74.0,30.00,SSE,166,1.1,0.0,75,0.00,CLR,,0.17,WeatherDisplay:10.37,2013-05-20 21:26:00,
2013-05-20 17:31:00,82.5,73.8,30.00,SSE,166,0.0,0.0,75,0.00,CLR,,0.17,WeatherDisplay:10.37,2013-05-20 21:31:00,
2013-05-20 17:36:00,82.3,74.4,30.00,SSE,157,3.5,3.5,77,0.00,CLR,,0.17,WeatherDisplay:10.37,2013-05-20 21:36:00,
2013-05-20 17:41:00,82.2,73.9,30.01,SSE,157,0.0,0.0,76,0.00,CLR,,0.17,WeatherDisplay:10.37,2013-05-20 21:41:00,
2013-05-20 17:46:00,82.1,73.8,30.01,SSE,157,0.0,0.0,76,0.00,CLR,,0.17,WeatherDisplay:10.37,2013-05-20 21:46:00,
2013-05-20 17:51:00,81.9,73.6,30.01,SSE,166,5.8,5.8,76,0.00,CLR,,0.17,WeatherDisplay:10.37,2013-05-20 21:51:00,
2013-05-20 17:56:00,81.8,73.9,30.01,SSE,157,1.1,0.0,77,0.00,CLR,,0.17,WeatherDisplay:10.37,2013-05-20 21:56:00,
2013-05-20 18:01:00,81.8,73.9,30.00,SSE,158,4.6,4.6,77,0.00,CLR,,0.17,WeatherDisplay:10.37,2013-05-20 22:01:00,
2013-05-20 18:06:00,81.9,73.6,30.00,SSE,152,7.0,7.0,76,0.00,CLR,,0.17,WeatherDisplay:10.37,2013-05-20 22:06:00,
2013-05-20 18:11:00,82.0,73.3,30.00,SSE,158,2.3,0.0,75,0.00,CLR,,0.17,WeatherDisplay:10.37,2013-05-20 22:11:00,
2013-05-20 18:16:00,81.9,73.6,30.00,SSE,157,0.0,0.0,76,0.00,CLR,,0.17,WeatherDisplay:10.37,2013-05-20 22:16:00,
2013-05-20 18:21:00,81.7,73.4,30.00,SSE,160,6.0,6.0,76,0.00,CLR,,0.17,WeatherDisplay:10.37,2013-05-20 22:21:00,
2013-05-20 18:26:00,81.6,72.9,30.00,SE,146,6.9,6.9,75,0.00,CLR,,0.17,WeatherDisplay:10.37,2013-05-20 22:26:00,
2013-05-20 18:31:00,81.4,73.1,30.00,SE,146,1.1,0.0,76,0.00,CLR,,0.17,WeatherDisplay:10.37,2013-05-20 22:31:00,
2013-05-20 18:36:00,81.2,72.9,30.00,SE,146,1.1,1.1,76,0.00,CLR,,0.17,WeatherDisplay:10.37,2013-05-20 22:36:00,
2013-05-20 18:41:00,80.9,72.6,30.01,SSE,155,5.8,5.8,76,0.00,CLR,,0.17,WeatherDisplay:10.37,2013-05-20 22:41:00,
2013-05-20 18:46:00,80.6,72.3,30.01,SSE,156,0.0,0.0,76,0.00,CLR,,0.17,WeatherDisplay:10.37,2013-05-20 22:46:00,
2013-05-20 18:51:00,80.4,72.5,30.00,SSE,158,3.5,3.5,77,0.00,CLR,,0.17,WeatherDisplay:10.37,2013-05-20 22:51:00,
2013-05-20 18:56:00,80.3,72.4,30.01,SSE,161,3.5,3.5,77,0.00,CLR,,0.17,WeatherDisplay:10.37,2013-05-20 22:56:00,
2013-05-20 19:01:00,80.1,72.2,30.01,SSE,164,1.1,1.1,77,0.00,CLR,,0.17,WeatherDisplay:10.37,2013-05-20 23:01:00,
2013-05-20 19:06:00,80.0,72.1,30.01,SSE,154,4.0,4.0,77,0.00,CLR,,0.17,WeatherDisplay:10.37,2013-05-20 23:06:00,
2013-05-20 19:11:00,79.9,72.0,30.01,SSE,157,3.5,3.5,77,0.00,CLR,,0.17,WeatherDisplay:10.37,2013-05-20 23:11:00,
2013-05-20 19:16:00,79.7,72.2,30.01,SSE,165,10.4,10.4,78,0.00,CLR,,0.17,WeatherDisplay:10.37,2013-05-20 23:16:00,
2013-05-20 19:21:00,79.5,72.4,30.02,SE,136,6.9,6.9,79,0.00,CLR,,0.17,WeatherDisplay:10.37,2013-05-20 23:21:00,
2013-05-20 19:26:00,79.2,72.5,30.02,SSE,155,4.6,4.6,80,0.00,CLR,,0.17,WeatherDisplay:10.37,2013-05-20 23:26:00,
2013-05-20 19:31:00,78.9,72.2,30.01,SE,146,0.0,0.1,80,0.00,CLR,,0.17,WeatherDisplay:10.37,2013-05-20 23:31:00,
2013-05-20 19:36:00,78.6,72.3,30.02,SSW,207,3.5,3.5,81,0.00,CLR,,0.17,WeatherDisplay:10.37,2013-05-20 23:36:00,
2013-05-20 19:41:00,78.4,72.1,30.02,SSE,168,5.0,5.0,81,0.00,CLR,,0.17,WeatherDisplay:10.37,2013-05-20 23:41:00,
2013-05-20 19:46:00,78.2,71.5,30.02,SSE,153,3.5,3.5,80,0.00,CLR,,0.17,WeatherDisplay:10.37,2013-05-20 23:46:00,
2013-05-20 19:51:00,78.1,71.8,30.02,SSE,167,2.3,0.0,81,0.00,CLR,,0.17,WeatherDisplay:10.37,2013-05-20 23:51:00,
2013-05-20 19:56:00,77.9,72.0,30.02,SSE,148,1.1,1.1,82,0.00,CLR,,0.17,WeatherDisplay:10.37,2013-05-20 23:56:00,
2013-05-20 20:01:00,77.8,71.9,30.02,SE,130,4.6,4.6,82,0.00,CLR,,0.17,WeatherDisplay:10.37,2013-05-21 00:01:00,
2013-05-20 20:06:00,77.8,72.2,30.02,SSE,167,8.1,8.1,83,0.00,CLR,,0.17,WeatherDisplay:10.37,2013-05-21 00:06:00,
2013-05-20 20:11:00,77.6,72.0,30.02,SSE,157,4.6,4.6,83,0.00,CLR,,0.17,WeatherDisplay:10.37,2013-05-21 00:11:00,
2013-05-20 20:16:00,77.5,71.9,30.03,ESE,105,1.1,0.0,83,0.00,CLR,,0.17,WeatherDisplay:10.37,2013-05-21 00:16:00,
2013-05-20 20:21:00,77.4,72.2,30.03,South,172,1.1,1.1,84,0.00,CLR,,0.17,WeatherDisplay:10.37,2013-05-21 00:21:00,
2013-05-20 20:26:00,77.3,72.1,30.03,SSW,196,1.1,1.1,84,0.00,CLR,,0.17,WeatherDisplay:10.37,2013-05-21 00:26:00,
2013-05-20 20:31:00,77.2,72.3,30.04,South,173,3.5,3.5,85,0.00,CLR,,0.17,WeatherDisplay:10.37,2013-05-21 00:31:00,
2013-05-20 20:36:00,77.1,72.2,30.04,SE,135,4.0,4.0,85,0.00,CLR,,0.17,WeatherDisplay:10.37,2013-05-21 00:36:00,
2013-05-20 20:41:00,76.9,72.0,30.04,SSE,156,1.1,1.1,85,0.00,CLR,,0.17,WeatherDisplay:10.37,2013-05-21 00:41:00,
2013-05-20 20:46:00,76.8,72.3,30.04,SSE,167,0.0,0.0,86,0.00,CLR,,0.17,WeatherDisplay:10.37,2013-05-21 00:46:00,
2013-05-20 20:51:00,76.7,72.2,30.04,SSW,200,3.0,3.0,86,0.00,CLR,,0.17,WeatherDisplay:10.37,2013-05-21 00:51:00,
2013-05-20 20:56:00,76.6,72.1,30.04,SSW,200,0.0,0.0,86,0.00,CLR,,0.17,WeatherDisplay:10.37,2013-05-21 00:56:00,
2013-05-20 21:01:00,76.5,72.3,30.04,SSW,200,0.0,0.0,87,0.00,CLR,,0.17,WeatherDisplay:10.37,2013-05-21 01:01:00,
2013-05-20 21:06:00,76.3,72.1,30.05,SSW,200,0.0,0.0,87,0.00,CLR,,0.17,WeatherDisplay:10.37,2013-05-21 01:06:00,
2013-05-20 21:11:00,76.2,72.0,30.05,SSW,200,0.0,0.0,87,0.00,CLR,,0.17,WeatherDisplay:10.37,2013-05-21 01:11:00,
2013-05-20 21:16:00,76.1,71.9,30.05,SSW,200,0.0,0.0,87,0.00,CLR,,0.17,WeatherDisplay:10.37,2013-05-21 01:16:00,
2013-05-20 21:21:00,76.1,72.3,30.05,WSW,251,0.0,0.0,88,0.00,CLR,,0.17,WeatherDisplay:10.37,2013-05-21 01:21:00,
2013-05-20 21:26:00,75.9,71.8,30.05,SW,234,0.0,0.0,87,0.00,CLR,,0.17,WeatherDisplay:10.37,2013-05-21 01:26:00,
2013-05-20 21:31:00,75.8,71.7,30.06,SW,236,1.1,1.1,87,0.00,CLR,,0.17,WeatherDisplay:10.37,2013-05-21 01:31:00,
2013-05-20 21:36:00,75.6,71.5,30.06,SW,236,0.0,0.0,87,0.00,CLR,,0.17,WeatherDisplay:10.37,2013-05-21 01:36:00,
2013-05-20 21:41:00,75.4,71.3,30.06,SW,236,1.1,1.1,87,0.00,CLR,,0.17,WeatherDisplay:10.37,2013-05-21 01:41:00,
2013-05-20 21:46:00,75.2,71.1,30.05,SW,236,0.0,0.0,87,0.00,CLR,,0.17,WeatherDisplay:10.37,2013-05-21 01:46:00,
2013-05-20 21:51:00,75.0,70.5,30.05,SW,236,1.1,0.0,86,0.00,CLR,,0.17,WeatherDisplay:10.37,2013-05-21 01:51:00,
2013-05-20 21:56:00,74.8,70.3,30.06,WSW,246,0.0,0.0,86,0.00,CLR,,0.17,WeatherDisplay:10.37,2013-05-21 01:56:00,
2013-05-20 22:01:00,74.6,70.1,30.06,WSW,245,1.1,0.0,86,0.00,CLR,,0.17,WeatherDisplay:10.37,2013-05-21 02:01:00,
2013-05-20 22:06:00,74.3,69.8,30.05,WSW,245,0.0,0.0,86,0.00,CLR,,0.17,WeatherDisplay:10.37,2013-05-21 02:06:00,
2013-05-20 22:11:00,74.1,69.6,30.06,WSW,245,0.0,0.0,86,0.00,CLR,,0.17,WeatherDisplay:10.37,2013-05-21 02:11:00,
2013-05-20 22:16:00,74.0,69.5,30.06,WSW,245,0.0,0.0,86,0.00,CLR,,0.17,WeatherDisplay:10.37,2013-05-21 02:16:00,
2013-05-20 22:21:00,73.8,69.3,30.06,WSW,245,0.0,0.0,86,0.00,CLR,,0.17,WeatherDisplay:10.37,2013-05-21 02:21:00,
2013-05-20 22:26:00,73.7,69.6,30.06,WSW,245,0.0,0.0,87,0.00,CLR,,0.17,WeatherDisplay:10.37,2013-05-21 02:26:00,
2013-05-20 22:31:00,73.6,69.8,30.06,WSW,245,0.0,0.0,88,0.00,CLR,,0.17,WeatherDisplay:10.37,2013-05-21 02:31:00,
2013-05-20 22:36:00,73.4,69.6,30.05,WSW,245,0.0,0.0,88,0.00,CLR,,0.17,WeatherDisplay:10.37,2013-05-21 02:36:00,
2013-05-20 22:41:00,73.2,69.4,30.05,WSW,245,0.0,0.0,88,0.00,CLR,,0.17,WeatherDisplay:10.37,2013-05-21 02:41:00,
2013-05-20 22:46:00,73.1,69.3,30.05,WSW,245,0.0,0.0,88,0.00,CLR,,0.17,WeatherDisplay:10.37,2013-05-21 02:46:00,
2013-05-20 22:51:00,73.0,69.6,30.05,WSW,245,0.0,0.0,89,0.00,CLR,,0.17,WeatherDisplay:10.37,2013-05-21 02:51:00,
2013-05-20 22:56:00,72.8,69.4,30.05,WSW,245,0.0,0.0,89,0.00,CLR,,0.17,WeatherDisplay:10.37,2013-05-21 02:56:00,
2013-05-20 23:01:00,72.7,69.3,30.04,WSW,245,0.0,0.0,89,0.00,CLR,,0.17,WeatherDisplay:10.37,2013-05-21 03:01:00,
2013-05-20 23:06:00,72.6,69.2,30.04,WSW,245,0.0,0.0,89,0.00,CLR,,0.17,WeatherDisplay:10.37,2013-05-21 03:06:00,
2013-05-20 23:11:00,72.4,69.0,30.04,WSW,245,0.0,0.0,89,0.00,CLR,,0.17,WeatherDisplay:10.37,2013-05-21 03:11:00,
2013-05-20 23:16:00,72.3,69.2,30.04,WSW,245,0.0,0.0,90,0.00,CLR,,0.17,WeatherDisplay:10.37,2013-05-21 03:16:00,
2013-05-20 23:21:00,72.2,69.1,30.04,WSW,245,0.0,0.0,90,0.00,CLR,,0.17,WeatherDisplay:10.37,2013-05-21 03:21:00,
2013-05-20 23:26:00,72.0,68.9,30.03,WSW,245,0.0,0.0,90,0.00,CLR,,0.17,WeatherDisplay:10.37,2013-05-21 03:26:00,
2013-05-20 23:31:00,71.9,69.1,30.04,WSW,245,0.0,0.0,91,0.00,CLR,,0.17,WeatherDisplay:10.37,2013-05-21 03:31:00,
2013-05-20 23:36:00,71.8,69.0,30.03,WSW,245,0.0,0.0,91,0.00,CLR,,0.17,WeatherDisplay:10.37,2013-05-21 03:36:00,
2013-05-20 23:41:00,71.7,68.9,30.03,WSW,245,0.0,0.0,91,0.00,CLR,,0.17,WeatherDisplay:10.37,2013-05-21 03:41:00,
2013-05-20 23:46:00,71.6,68.8,30.03,WSW,245,0.0,0.0,91,0.00,CLR,,0.17,WeatherDisplay:10.37,2013-05-21 03:46:00,
2013-05-20 23:51:00,71.4,69.0,30.02,WSW,245,0.0,0.0,92,0.00,CLR,,0.17,WeatherDisplay:10.37,2013-05-21 03:51:00,
2013-05-20 23:56:00,71.3,68.9,30.02,WSW,245,0.0,0.0,92,0.00,CLR,,0.17,WeatherDisplay:10.37,2013-05-21 03:56:00,